Regional Weather Roundup
Issued by NWS

Home | Current Version | Previous Version | Graphics & Text | Print | Product List | Glossary On
Versions: 1 2 3 4 5 6 7 8 9 10 11 12 13 14 15 16 17 18 19 20 21 22 23 24 25 26 27 28 29 30 31 32 33 34 35 36 37 38 39 40 41 42 43 44 45 46 47 48 49 50
000
ASUS45 KPSR 070010
RWRAZ

ARIZONA HOURLY REGIONAL WEATHER ROUNDUP
NATIONAL WEATHER SERVICE PHOENIX AZ
500 PM MST SAT FEB 06 2016

NOTE: FAIR INDICATES FEW OR NO CLOUDS BELOW 12,000 FEET WITH NO
SIGNIFICANT WEATHER AND/OR OBSTRUCTIONS TO VISIBILITY.

AZZ001>003-036-070100-
NORTHWEST ARIZONA

CITY           SKY/WX    TMP DP  RH WIND       PRES   REMARKS
BULLHEAD CITY  SUNNY     64  23  20 N21G28    30.26F
KINGMAN        SUNNY     58  18  21 NE10      30.30F
6HR MIN TEMP:  50; 6HR MAX TEMP:  60;

$$

AZZ004>008-015-016-018-070100-
NORTH CENTRAL ARIZONA

CITY           SKY/WX    TMP DP  RH WIND       PRES   REMARKS
GRAND CANYON   SUNNY     44  18  35 NE10      30.39F
6HR MIN TEMP:  40; 6HR MAX TEMP:  51;

WILLIAMS       SUNNY     45  19  36 NW5       30.43R
PRESCOTT       SUNNY     57   8  14 N6        30.31S
6HR MIN TEMP:  42; 6HR MAX TEMP:  58;

FLAGSTAFF      SUNNY     40  16  37 E7        30.39R
6HR MIN TEMP:  36; 6HR MAX TEMP:  45;

PAYSON         SUNNY     59  18  20 SW6       30.31S
PAGE           PTCLDY    40  23  50 NE8       30.43F WCI  34
6HR MIN TEMP:  35; 6HR MAX TEMP:  42;

$$

AZZ009>014-017-070100-
NORTHEAST ARIZONA

CITY           SKY/WX    TMP DP  RH WIND       PRES   REMARKS
WINSLOW        CLEAR     48  15  26 NW8       30.40R
6HR MIN TEMP:  34; 6HR MAX TEMP:  50;

SAINT JOHNS    CLEAR     50   3  14 N5        30.35S
6HR MIN TEMP:  36; 6HR MAX TEMP:  52;

WINDOW ROCK    CLEAR     48   0  13 CALM      30.38R
6HR MIN TEMP:  32; 6HR MAX TEMP:  50;

SHOW LOW       CLEAR     43  10  26 N7        30.38R
$$

AZZ023-070100-
GREATER PHOENIX AREA

CITY           SKY/WX    TMP DP  RH WIND       PRES   REMARKS
PHOENIX        MOSUNNY   74  10   8 NE3       30.16S
6HR MIN TEMP:  63; 6HR MAX TEMP:  74;

BUCKEYE        SUNNY     70  18  13 SE5       30.20F
GLENDALE       MOSUNNY   73   9   8 CALM      30.19F
LUKE AFB       SUNNY     72  11   9 NW2       30.16F
6HR MIN TEMP:  63; 6HR MAX TEMP:  73;

DEER VALLEY    SUNNY     72  12  10 CALM      30.17F
6HR MIN TEMP:  64; 6HR MAX TEMP:  72;

SCOTTSDALE     SUNNY     72   9   8 CALM      30.19F
6HR MIN TEMP:  60; 6HR MAX TEMP:  73;

MESA-FALCON    MOSUNNY  N/A N/A N/A N14       30.17
MESA-GATEWAY   SUNNY     72  16  12 NW6       30.17
CHANDLER       SUNNY     73  10   9 N6        30.17F
$$

AZZ027-028-070100-
SOUTHWEST MARICOPA COUNTY AND PINAL COUNTY

CITY           SKY/WX    TMP DP  RH WIND       PRES   REMARKS
CASA GRANDE    SUNNY     72  14  11 NE9       30.17F
6HR MIN TEMP:  63; 6HR MAX TEMP:  72;

GILA BEND      FAIR      70  15  12 N14       30.16F
6HR MIN TEMP:  64; 6HR MAX TEMP:  72;

$$

AZZ503-504-507>509-070100-
SOUTHEAST ARIZONA

CITY           SKY/WX    TMP DP  RH WIND       PRES   REMARKS
TUCSON         SUNNY     73   1   6 E8        30.18F
6HR MIN TEMP:  62; 6HR MAX TEMP:  74;

DAVIS-MONTHAN  SUNNY     72   2   6 E2        30.17S
6HR MIN TEMP:  61; 6HR MAX TEMP:  73;

RYAN FIELD     SUNNY     75  12   9 E6        30.18S
NOGALES        MOSUNNY   70   3   7 N6        30.19F
6HR MIN TEMP:  59; 6HR MAX TEMP:  75;

SIERRA VISTA   PTSUNNY   61  -1   8 E7        30.28R
6HR MIN TEMP:  52; 6HR MAX TEMP:  63;

DOUGLAS        MOSUNNY   63  -2   7 E7        30.25F
6HR MIN TEMP:  53; 6HR MAX TEMP:  67;

SAFFORD        CLEAR     63   4   9 SE9       30.26F
6HR MIN TEMP:  51; 6HR MAX TEMP:  63;

$$

AZZ020-021-025-026-031-070100-
SOUTHWEST ARIZONA

CITY           SKY/WX    TMP DP  RH WIND       PRES   REMARKS
YUMA           SUNNY     72  18  13 N14       30.19F
6HR MIN TEMP:  65; 6HR MAX TEMP:  73;

$$

CAZ031-033-041-043-047-048-061-070100-
SOUTHERN CALIFORNIA

CITY           SKY/WX    TMP DP  RH WIND       PRES   REMARKS
DOWNTOWN L.A.  SUNNY     75  29  18 CALM      30.13F
6HR MIN TEMP:  68; 6HR MAX TEMP:  77;

L.A. AIRPORT   SUNNY     70  32  24 W8        30.14F
6HR MIN TEMP:  69; 6HR MAX TEMP:  76;

SAN DIEGO      MOSUNNY   73  27  18 N10       30.14S
6HR MIN TEMP:  69; 6HR MAX TEMP:  76;

BURBANK        SUNNY     75  24  15 S9        30.13F
6HR MIN TEMP:  62; 6HR MAX TEMP:  78;

ONTARIO        SUNNY     76  18  11 CALM      30.14F
6HR MIN TEMP:  63; 6HR MAX TEMP:  77;

RIVERSIDE      SUNNY     76  19  11 N10G21    30.15F
6HR MIN TEMP:  68; 6HR MAX TEMP:  78;

PALM SPRINGS   SUNNY     75  19  12 SW3       30.23S
6HR MIN TEMP:  66; 6HR MAX TEMP:  76;

EL CENTRO NAS  SUNNY     74  20  13 NW7       30.23S
IMPERIAL       SUNNY     73  25  16 NW6       30.20F
6HR MIN TEMP:  66; 6HR MAX TEMP:  74;

BLYTHE         SUNNY     71  22  15 N10       30.22F
6HR MIN TEMP:  61; 6HR MAX TEMP:  71;

NEEDLES        SUNNY     68  22  17 N13       30.25F
6HR MIN TEMP:  59; 6HR MAX TEMP:  69;

$$

NVZ020-UTZ003-070100-
SOUTHERN NEVADA-UTAH

CITY           SKY/WX    TMP DP  RH WIND       PRES   REMARKS
LAS VEGAS      MOSUNNY   61  22  22 CALM      30.29F
6HR MIN TEMP:  50; 6HR MAX TEMP:  61;

SALT LAKE CITY CLOUDY    34  26  72 N7        30.45F WCI  28
6HR MIN TEMP:  30; 6HR MAX TEMP:  41;

$$

NMZ009-TXZ055-070100-
NEW MEXICO-WEST TEXAS

CITY           SKY/WX    TMP DP  RH WIND       PRES   REMARKS
ALBUQUERQUE    CLEAR     49   8  19 SW5       30.33S
6HR MIN TEMP:  39; 6HR MAX TEMP:  50;

EL PASO        PTCLDY    54   2  12 CALM      30.31F
6HR MIN TEMP:  46; 6HR MAX TEMP:  58;

$$


........................KEY........................
SKY/WX - SKY CONDITION/WEATHER
TMP    - TEMPERATURE IN FAHRENHEIT
DP     - DEW POINT IN FAHRENHEIT
RH     - RELATIVE HUMIDITY IN PERCENT
WIND   - DIRECTION AND SPEED IN MILES PER HOUR (MPH)
VRB    - VARIABLE WIND DIRECTION
PRES   - MEAN SEA LEVEL PRESSURE IN INCHES OF MERCURY
         F - FALLING PRESSURE   R - RISING PRESSURE
         S - STEADY PRESSURE
VSB    - VISIBILITY IN MILES
HX     - HEAT INDEX IN FAHRENHEIT
WCI    - WIND CHILL INDEX IN FAHRENHEIT
TC     - TEMPERATURE IN CELSIUS WHICH IS ALSO KNOWN AS
         TEMPERATURE IN CENTIGRADE
AFB    - AIR FORCE BASE
         LUKE AFB IS LUKE AIR FORCE BASE
         DAVIS-MONTHAN IS DAVIS-MONTHAN AIR FORCE BASE
NAS    - NAVAL AIR STATION
         EL CENTRO NAS IS EL CENTRO NAVAL AIR STATION
N/A    - NOT AVAILABLE




USA.gov is the U.S. government's official web portal to all federal, state and local government web resources and services.